Location: Chervonnoye
(48.6000°N, 34.4000°E)
Time: 07:12:56
(UTC+00:00)

Nadezhda 1 Rocket - Pass Details

Date: 24 April 2021
Orbit: 940 x 1006 km, 83.0° (Epoch: 13 May)

Event Time Altitude Azimuth Distance (km) Brightness Sun altitude
Exits shadow 21:24:34 61° 112° (ESE) 1,135 4.1 -28.1°
Maximum altitude 21:24:59 62° 93° (E) 1,122 4.2 -28.1°
Drops below altitude 10° 21:31:15 10° 15° (NNE) 2,772 7.2 -28.2°
Sets 21:33:48 0° 12° (NNE) 3,717 8.2 -28.2°
